TimeEDT,TemperatureF,Dew PointF,Humidity,Sea Level PressureIn,VisibilityMPH,Wind Direction,Wind SpeedMPH,Gust SpeedMPH,PrecipitationIn,Events,Conditions,WindDirDegrees,DateUTC
12:51 AM,57.9,55.0,90,30.27,4.0,ESE,4.6,-,0.01,Rain,Light Rain,110,2013-05-19 04:51:00
1:51 AM,57.0,55.0,93,30.26,4.0,East,4.6,-,0.00,Rain,Light Rain,90,2013-05-19 05:51:00
2:12 AM,57.2,55.4,94,30.25,2.0,ENE,3.5,-,0.02,Rain,Light Rain,70,2013-05-19 06:12:00
2:41 AM,57.2,55.4,94,30.25,3.0,East,3.5,-,0.05,Rain,Light Rain,90,2013-05-19 06:41:00
2:51 AM,57.0,55.9,96,30.25,4.0,NE,4.6,-,0.05,Rain,Light Rain,50,2013-05-19 06:51:00
3:00 AM,57.2,55.4,94,30.24,5.0,ENE,3.5,-,0.01,Rain,Light Rain,70,2013-05-19 07:00:00
3:22 AM,57.2,55.4,94,30.24,3.0,ESE,5.8,-,0.01,Rain,Light Rain,110,2013-05-19 07:22:00
3:46 AM,57.2,55.4,94,30.24,3.0,East,5.8,-,0.02,,Overcast,90,2013-05-19 07:46:00
3:51 AM,57.2,55.4,94,30.24,3.0,East,6.9,-,N/A,,Overcast,100,2013-05-19 07:51:00
4:51 AM,57.0,55.9,96,30.24,4.0,East,5.8,-,0.00,,Overcast,100,2013-05-19 08:51:00
5:51 AM,57.0,55.9,96,30.25,3.0,East,6.9,-,0.02,Rain,Light Rain,90,2013-05-19 09:51:00
6:02 AM,57.2,55.4,94,30.24,2.5,East,5.8,-,0.01,Rain,Light Rain,90,2013-05-19 10:02:00
6:15 AM,57.2,55.4,94,30.24,3.0,ESE,6.9,-,0.02,Rain,Light Rain,110,2013-05-19 10:15:00
6:51 AM,57.0,55.0,93,30.25,5.0,ESE,4.6,-,0.02,,Overcast,110,2013-05-19 10:51:00
7:12 AM,57.2,55.4,94,30.26,2.5,East,5.8,-,N/A,,Overcast,100,2013-05-19 11:12:00
7:51 AM,57.0,55.0,93,30.26,2.0,ESE,6.9,-,N/A,,Overcast,110,2013-05-19 11:51:00
8:11 AM,57.2,55.4,94,30.27,3.0,East,5.8,-,N/A,,Overcast,100,2013-05-19 12:11:00
8:33 AM,57.2,55.4,94,30.27,2.5,East,8.1,-,N/A,,Overcast,100,2013-05-19 12:33:00
8:51 AM,57.0,55.0,93,30.27,2.0,East,6.9,-,0.00,Rain,Light Rain,90,2013-05-19 12:51:00
9:17 AM,57.2,55.4,94,30.27,3.0,East,8.1,-,0.01,,Overcast,100,2013-05-19 13:17:00
9:51 AM,57.9,55.9,93,30.27,4.0,ESE,6.9,-,0.01,,Overcast,110,2013-05-19 13:51:00
10:14 AM,57.2,55.4,94,30.27,2.5,ESE,6.9,-,N/A,,Overcast,120,2013-05-19 14:14:00
10:28 AM,57.2,57.2,100,30.27,1.8,East,5.8,-,N/A,,Overcast,90,2013-05-19 14:28:00
10:51 AM,59.0,57.0,93,30.27,2.0,ESE,5.8,-,N/A,,Overcast,110,2013-05-19 14:51:00
11:08 AM,59.0,57.2,94,30.27,3.0,East,5.8,-,N/A,,Overcast,80,2013-05-19 15:08:00
11:51 AM,60.1,57.9,93,30.26,4.0,ESE,4.6,-,N/A,,Overcast,110,2013-05-19 15:51:00
12:51 PM,61.0,57.9,90,30.24,8.0,ESE,9.2,-,N/A,,Overcast,110,2013-05-19 16:51:00
1:17 PM,62.6,59.0,88,30.23,7.0,ESE,10.4,-,N/A,,Overcast,110,2013-05-19 17:17:00
1:51 PM,62.1,59.0,90,30.22,9.0,ESE,8.1,-,N/A,,Overcast,110,2013-05-19 17:51:00
2:51 PM,63.0,57.9,84,30.20,10.0,ESE,6.9,-,N/A,,Overcast,110,2013-05-19 18:51:00
2:59 PM,62.6,57.2,82,30.19,10.0,ESE,9.2,-,N/A,,Overcast,120,2013-05-19 18:59:00
3:51 PM,63.0,57.9,84,30.18,10.0,ESE,10.4,-,N/A,,Overcast,110,2013-05-19 19:51:00
4:51 PM,62.1,57.9,86,30.17,10.0,ESE,11.5,-,N/A,,Overcast,110,2013-05-19 20:51:00
5:51 PM,61.0,57.0,87,30.18,10.0,ESE,8.1,-,N/A,,Overcast,110,2013-05-19 21:51:00
6:08 PM,60.8,57.2,88,30.18,10.0,East,8.1,-,N/A,,Overcast,90,2013-05-19 22:08:00
6:51 PM,61.0,57.0,87,30.18,10.0,East,8.1,-,N/A,,Overcast,90,2013-05-19 22:51:00
7:51 PM,60.1,57.0,90,30.18,10.0,East,8.1,-,N/A,,Overcast,90,2013-05-19 23:51:00
8:51 PM,59.0,57.0,93,30.17,10.0,East,5.8,-,N/A,,Overcast,90,2013-05-20 00:51:00
9:51 PM,59.0,57.0,93,30.18,10.0,ESE,3.5,-,N/A,,Overcast,110,2013-05-20 01:51:00
10:51 PM,59.0,57.0,93,30.18,7.0,ENE,5.8,-,N/A,,Overcast,70,2013-05-20 02:51:00
11:44 PM,57.2,57.2,100,30.18,2.5,ENE,5.8,-,N/A,,Overcast,70,2013-05-20 03:44:00
11:51 PM,57.9,57.0,97,30.18,2.5,ENE,4.6,-,N/A,,Overcast,70,2013-05-20 03:51:00